This demonstration page uses our WeatherBlox Daily Observations layout. Learn more.

Left ArrowRight Arrow

34.74481, -87.66753

Hourly Observations for November 13, 2016

Temp ( °F °C ) Dew Point ( °F °C ) Humidity (%) Winds ( mph kmh ) Pressure ( in mb ) Visibility ( mi km ) Precip ( " mm )
12:53 am 00:53 Clear 43 6.1 32 0 65 65 Calm 30.27 1025 10 16 0.00 0.00
1:53 am 01:53 Clear 39 3.9 31 -0.6 73 73 Calm 30.27 1025 10 16 0.00 0.00
2:53 am 02:53 Clear 37 2.8 31 -0.6 79 79 Calm 30.27 1025 10 16 0.00 0.00
3:53 am 03:53 Clear 38 3.3 32 0 79 79 Calm 30.26 1025 10 16 0.00 0.00
4:53 am 04:53 Clear 34 1.1 29 -1.7 82 82 Calm 30.27 1025 10 16 0.00 0.00
5:53 am 05:53 Clear 36 2.2 30 -1.1 79 79 Calm 30.28 1025 10 16 0.00 0.00
6:53 am 06:53 Sunny 36 2.2 31 -0.6 82 82 Calm 30.28 1025 10 16 0.00 0.00
7:53 am 07:53 Sunny 42 5.6 35 1.7 76 76 Calm 30.29 1026 10 16 0.00 0.00
8:53 am 08:53 Sunny 52 11.1 39 3.9 61 61 Calm 30.29 1026 10 16 0.00 0.00
9:53 am 09:53 Sunny 59 15 36 2.2 42 42 VRB 3 6 30.29 1026 9 14 0.00 0.00
10:53 am 10:53 Sunny 63 17.2 36 2.2 37 37 ESE 5 7 30.25 1024 9 14 0.00 0.00
11:53 am 11:53 Mostly Sunny 65 18.3 36 2.2 34 34 Calm 30.23 1024 10 16 0.00 0.00
12:53 pm 12:53 Sunny 66 18.9 37 2.8 34 34 VRB 6 9 30.19 1022 9 14 0.00 0.00
1:53 pm 13:53 Sunny 67 19.4 37 2.8 33 33 ENE 7 11 30.17 1022 8 13 0.00 0.00
2:53 pm 14:53 Sunny 67 19.4 36 2.2 32 32 E 8 13 30.16 1021 7 11 0.00 0.00
3:53 pm 15:53 Hazy 64 17.8 35 1.7 34 34 E 6 9 30.16 1021 6 10 0.00 0.00
4:53 pm 16:53 Clear 59 15 35 1.7 41 41 Calm 30.16 1021 7 11 0.00 0.00
5:53 pm 17:53 Clear 53 11.7 36 2.2 52 52 Calm 30.16 1022 8 13 0.00 0.00
6:53 pm 18:53 Clear 47 8.3 36 2.2 66 66 ESE 3 6 30.16 1021 8 13 0.00 0.00
7:53 pm 19:53 Clear 49 9.4 35 1.7 59 59 Calm 30.16 1021 8 13 0.00 0.00
8:53 pm 20:53 Clear 45 7.2 35 1.7 68 68 Calm 30.16 1021 8 13 0.00 0.00
9:53 pm 21:53 Clear 43 6.1 35 1.7 74 74 Calm 30.15 1021 7 11 0.00 0.00
10:53 pm 22:53 Clear 41 5 34 1.1 76 76 Calm 30.14 1021 7 11 0.00 0.00
11:53 pm 23:53 Clear 39 3.9 33 0.6 79 79 Calm 30.14 1021 7 11 0.00 0.00

Powered by AerisWeather